Home > Weather > Fort Wayne > Past weeks

Flag for USA Past Weather in Fort Wayne, Indiana, USA — Yesterday and Last 2 Weeks

Now
74 °F

Sunny.


Feels Like: 77 °F
Forecast: 58 / 87 °F
Wind: 6 mph from Southeast

Location: Fort Wayne International Airport

Current Time: Jun 25, 2016 at 10:19:39 AM

Latest Report: Jun 25, 2016 at 9:54 AM


Visibility: 10 mi

Pressure: 30.17 "Hg

Humidity: 52%

Dew Point: 55 °F

Location of Fort WayneLocation

Past Weather in Fort Wayne — Graph

°F

Fort Wayne Temperature Yesterday

Maximum temperature yesterday: 82 °F (at 5:54 PM)
Minimum temperature yesterday: 63 °F (at 5:54 AM)
Average temperature yesterday: 72 °F

High & Low Weather Summary for the Past Weeks

 TemperatureHumidityPressure
High92 °F (Jun 11, 4:54 PM)96% (Jun 15, 6:02 AM)30.29 "Hg (Jun 15, 6:02 AM)
Low54 °F (Jun 13, 4:54 AM)27% (Jun 13, 6:54 PM)29.71 "Hg (Jun 16, 5:54 AM)
Average73 °F66%29.99 "Hg
* Reported Jun 10 8:54 AM — Jun 25 8:54 AM, Fort Wayne, Weather by CustomWeather, © 2016

Note: Actual official high and low records may vary slightly from our data, if they occured in-between our weather recording intervals... More about our weather records

Advertising

Fort Wayne Weather History for the Previous 24 Hours

Scroll right to see more
 ConditionsComfort  
Time TempWeatherWind HumidityBarometerVisibility
8:54 AM
Sat, Jun 25
70 °FPassing clouds.5 mph59%30.16 "Hg10 mi
7:54 AM66 °FPassing clouds.No wind70%30.15 "Hg10 mi
6:54 AM61 °FPassing clouds.No wind83%30.13 "Hg10 mi
5:54 AM60 °FClear.No wind83%30.12 "Hg10 mi
4:54 AM61 °FClear.No wind81%30.11 "Hg10 mi
3:54 AM63 °FClear.No wind73%30.11 "Hg10 mi
2:54 AM64 °FClear.3 mph73%30.11 "Hg10 mi
1:54 AM64 °FClear.No wind75%30.11 "Hg10 mi
12:54 AM66 °FClear.3 mph73%30.11 "Hg10 mi
11:54 PM
Fri, Jun 24
67 °FClear.No wind71%30.10 "Hg10 mi
10:54 PM70 °FClear.No wind71%30.09 "Hg10 mi
9:54 PM73 °FPassing clouds.No wind66%30.08 "Hg10 mi
8:54 PM76 °FPassing clouds.3 mph56%30.06 "Hg10 mi
7:54 PM79 °FPassing clouds.5 mph45%30.06 "Hg10 mi
6:54 PM81 °FPassing clouds.6 mph42%30.07 "Hg10 mi
5:54 PM82 °FPassing clouds.3 mph38%30.08 "Hg10 mi
4:54 PM81 °FPassing clouds.5 mph41%30.08 "Hg10 mi
3:54 PM81 °FPassing clouds.No wind42%30.08 "Hg10 mi
2:54 PM80 °FPassing clouds.6 mph51%30.07 "Hg10 mi
1:54 PM79 °FPassing clouds.5 mph48%30.09 "Hg10 mi
12:54 PM77 °FPassing clouds.6 mph52%30.09 "Hg10 mi
11:54 AM76 °FPassing clouds.9 mph52%30.08 "Hg10 mi
10:54 AM73 °FPassing clouds.8 mph55%30.07 "Hg10 mi
Weather by CustomWeather, © 2016

See weather overviewHow to use our weather pages